Total_Precipitation_Accumulation
1.94 2.00 1.90 1.88 1.85 1.82 1.72 1.58 1.54 1.47 1.36 1.27 1.17 1.12 1.13 1.18 1.17 1.21 1.19 1.15 1.11 1.08 1.06 1.06 1.09 1.14 1.23 1.23 1.26 1.41 1.61 1.77 1.80 1.46 1.31 1.38 1.53 1.50 1.50 1.46 1.36 1.31 1.35
1.60 1.74 1.76 1.68 1.56 1.52 1.45 1.38 1.30 1.24 1.18 1.14 1.02 0.96 0.93 0.93 0.92 0.94 0.96 0.97 0.98 0.94 0.97 1.03 1.03 1.06 1.11 1.18 1.23 1.31 1.46 1.68 1.83 1.72 1.48 1.47 1.53 1.55 1.60 1.59 1.39 1.24 1.28
1.38 1.44 1.48 1.43 1.34 1.28 1.25 1.26 1.17 1.09 1.05 0.99 0.93 0.92 0.85 0.83 0.79 0.78 0.81 0.88 0.90 0.87 0.91 0.97 1.02 1.14 1.14 1.16 1.23 1.27 1.38 1.50 1.77 1.83 1.63 1.58 1.64 1.69 1.81 1.67 1.50 1.48 1.23
1.20 1.24 1.27 1.28 1.25 1.18 1.11 1.09 1.07 1.03 1.01 0.96 0.95 0.87 0.81 0.76 0.75 0.75 0.77 0.81 0.83 0.85 0.90 0.95 0.99 1.13 1.21 1.24 1.24 1.27 1.33 1.46 1.64 1.81 1.75 1.70 1.75 1.83 1.88 1.82 1.69 1.55 1.39
1.17 1.12 1.16 1.22 1.23 1.18 1.16 1.13 1.09 1.01 0.95 0.94 0.93 0.88 0.82 0.75 0.71 0.72 0.72 0.74 0.83 0.85 0.84 0.86 0.91 1.01 1.11 1.10 1.02 1.07 1.23 1.45 1.53 1.71 1.75 1.71 1.71 1.84 1.83 1.63 1.58 1.51 1.35
1.20 1.16 1.17 1.18 1.14 1.12 1.12 1.08 1.06 1.01 0.97 0.93 0.90 0.88 0.82 0.68 0.70 0.69 0.68 0.73 0.79 0.82 0.81 0.82 0.79 0.78 0.77 0.78 0.83 0.90 1.04 1.31 1.63 1.82 1.79 1.73 1.61 1.60 1.67 1.61 1.62 1.63 1.55
1.32 1.21 1.19 1.16 1.07 1.02 0.96 0.95 1.00 0.99 0.93 0.87 0.84 0.84 0.80 0.73 0.68 0.62 0.63 0.71 0.80 0.86 0.88 0.86 0.69 0.59 0.69 0.76 0.81 0.85 0.98 1.17 1.48 1.81 1.90 1.68 1.63 1.60 1.66 1.65 1.71 1.76 1.64
1.27 1.17 1.12 1.10 1.03 1.00 0.99 0.98 0.97 0.94 0.87 0.87 0.87 0.85 0.84 0.72 0.65 0.59 0.61 0.68 0.78 0.81 0.81 0.83 0.84 0.77 0.74 0.81 0.88 0.96 1.09 1.23 1.34 1.45 1.76 1.58 1.38 1.39 1.48 1.54 1.64 1.65 1.55
1.25 1.09 1.00 0.95 0.89 0.88 0.92 0.92 0.89 0.87 0.82 0.77 0.78 0.80 0.86 0.82 0.70 0.62 0.59 0.66 0.74 0.76 0.72 0.71 0.71 0.73 0.79 0.91 1.05 1.26 1.38 1.49 1.41 1.55 1.72 1.67 1.52 1.43 1.33 1.42 1.65 1.69 1.61
1.01 0.89 0.85 0.85 0.79 0.78 0.79 0.79 0.76 0.78 0.77 0.72 0.71 0.76 0.79 0.76 0.61 0.53 0.52 0.59 0.71 0.75 0.76 0.74 0.67 0.63 0.74 0.90 1.15 1.44 1.58 1.64 1.50 1.59 1.85 1.90 1.73 1.70 1.67 1.59 1.72 1.77 1.70
0.84 0.76 0.78 0.78 0.70 0.66 0.69 0.70 0.69 0.66 0.68 0.68 0.67 0.70 0.66 0.55 0.48 0.43 0.43 0.48 0.59 0.69 0.75 0.82 0.79 0.71 0.76 0.97 1.19 1.39 1.55 1.57 1.61 1.69 1.70 1.72 1.79 1.82 1.81 1.75 1.72 1.72 1.70
0.76 0.72 0.76 0.76 0.56 0.48 0.59 0.62 0.62 0.68 0.66 0.66 0.67 0.63 0.53 0.49 0.41 0.39 0.40 0.41 0.44 0.60 0.79 0.82 0.82 0.77 0.81 1.01 1.18 1.44 1.65 1.72 1.70 1.73 1.58 1.48 1.44 1.47 1.54 1.53 1.50 1.47 1.43
0.74 0.74 0.73 0.67 0.56 0.50 0.55 0.58 0.62 0.67 0.64 0.58 0.60 0.58 0.49 0.47 0.43 0.37 0.39 0.42 0.45 0.52 0.69 0.76 0.77 0.78 0.92 1.22 1.39 1.56 1.72 1.83 1.86 1.72 1.52 1.41 1.28 1.21 1.21 1.29 1.33 1.32 1.24
0.78 0.76 0.74 0.68 0.57 0.50 0.53 0.50 0.51 0.54 0.55 0.51 0.53 0.53 0.50 0.48 0.43 0.40 0.44 0.49 0.54 0.57 0.68 0.82 0.91 0.94 1.11 1.41 1.61 1.80 1.84 1.75 1.59 1.53 1.44 1.36 1.22 1.15 1.15 1.10 1.13 1.18 1.19
0.74 0.69 0.65 0.58 0.55 0.53 0.47 0.36 0.35 0.36 0.35 0.39 0.44 0.44 0.42 0.40 0.35 0.39 0.42 0.44 0.50 0.54 0.63 0.82 1.00 1.11 1.30 1.50 1.66 1.72 1.70 1.59 1.48 1.31 1.24 1.29 1.25 1.16 1.11 1.03 1.01 1.03 1.12
0.68 0.65 0.57 0.51 0.49 0.46 0.49 0.40 0.31 0.28 0.26 0.23 0.25 0.26 0.27 0.33 0.34 0.36 0.37 0.40 0.45 0.53 0.62 0.83 0.97 1.05 1.23 1.44 1.57 1.53 1.43 1.35 1.27 1.17 1.12 1.09 1.08 1.04 1.02 0.97 0.91 0.91 0.99
0.57 0.55 0.51 0.47 0.44 0.42 0.45 0.48 0.45 0.32 0.24 0.24 0.25 0.25 0.27 0.31 0.30 0.30 0.33 0.37 0.40 0.48 0.60 0.80 0.94 1.05 1.23 1.35 1.37 1.35 1.31 1.21 1.14 1.11 1.09 1.00 0.94 0.91 0.88 0.85 0.83 0.86 0.83
0.36 0.35 0.37 0.41 0.41 0.40 0.38 0.37 0.38 0.39 0.40 0.36 0.31 0.28 0.25 0.24 0.24 0.24 0.28 0.32 0.37 0.42 0.57 0.77 0.91 1.00 1.09 1.16 1.23 1.27 1.24 1.15 1.06 1.05 1.11 1.06 0.96 0.88 0.80 0.77 0.76 0.71 0.71
0.27 0.30 0.28 0.30 0.34 0.34 0.32 0.33 0.33 0.36 0.38 0.38 0.35 0.30 0.26 0.24 0.26 0.29 0.32 0.36 0.43 0.51 0.61 0.74 0.84 0.92 0.94 0.94 1.00 1.06 1.07 1.06 1.01 0.98 0.98 0.99 0.92 0.82 0.72 0.65 0.61 0.50 0.52
0.20 0.18 0.19 0.21 0.24 0.27 0.25 0.26 0.27 0.29 0.31 0.33 0.34 0.31 0.30 0.35 0.39 0.42 0.40 0.38 0.43 0.52 0.60 0.69 0.77 0.82 0.81 0.78 0.77 0.81 0.86 0.90 0.89 0.86 0.83 0.83 0.80 0.71 0.63 0.58 0.55 0.52 0.52
0.15 0.12 0.13 0.14 0.16 0.17 0.15 0.16 0.19 0.22 0.26 0.31 0.29 0.27 0.34 0.41 0.46 0.46 0.46 0.45 0.47 0.51 0.55 0.59 0.62 0.66 0.66 0.65 0.63 0.66 0.71 0.76 0.76 0.76 0.74 0.71 0.67 0.64 0.56 0.51 0.48 0.44 0.42
0.10 0.10 0.12 0.14 0.13 0.12 0.12 0.14 0.17 0.20 0.22 0.26 0.29 0.30 0.39 0.41 0.46 0.50 0.52 0.52 0.51 0.52 0.50 0.50 0.50 0.51 0.53 0.53 0.52 0.54 0.58 0.61 0.67 0.71 0.72 0.67 0.57 0.53 0.47 0.42 0.43 0.43 0.42
0.10 0.11 0.14 0.15 0.13 0.12 0.13 0.15 0.17 0.18 0.20 0.23 0.25 0.30 0.36 0.44 0.51 0.55 0.56 0.54 0.53 0.51 0.46 0.45 0.47 0.48 0.47 0.45 0.45 0.49 0.53 0.56 0.61 0.69 0.73 0.67 0.56 0.48 0.43 0.41 0.43 0.46 0.44
0.11 0.13 0.15 0.15 0.12 0.12 0.13 0.14 0.16 0.17 0.19 0.22 0.24 0.28 0.33 0.41 0.48 0.55 0.59 0.56 0.55 0.53 0.49 0.47 0.46 0.45 0.42 0.38 0.36 0.35 0.37 0.43 0.52 0.59 0.63 0.62 0.52 0.43 0.38 0.37 0.38 0.39 0.42
0.12 0.11 0.11 0.12 0.13 0.14 0.14 0.14 0.15 0.17 0.17 0.17 0.20 0.22 0.25 0.30 0.37 0.46 0.54 0.58 0.59 0.59 0.55 0.51 0.51 0.48 0.42 0.34 0.28 0.26 0.32 0.39 0.46 0.51 0.55 0.52 0.43 0.38 0.36 0.36 0.35 0.34 0.36
0.10 0.11 0.10 0.09 0.10 0.11 0.13 0.14 0.14 0.15 0.17 0.16 0.16 0.18 0.20 0.23 0.28 0.33 0.40 0.47 0.52 0.57 0.61 0.63 0.61 0.48 0.39 0.32 0.30 0.30 0.32 0.32 0.35 0.39 0.42 0.42 0.35 0.34 0.36 0.35 0.30 0.30 0.32